Jaakko Taylor

Chief Scout - KuPS
4 Dec 2028
Monday
Process

Personality

Adaptability (7) Ambition (1) Controversy (16) Loyalty (9) Pressure (12) Professionalism (19) Sportsmanship (15) Temperament (13)

Profile

Coaching Style Democratic
License Continental Pro
Determination 10
Man Management 9
Motivating 10
Discipline 7
Job Satisfaction
86%
Fatigue
0%
Role Chief Scout
Wage 32.6K p/w
Contract 14.03.2029

Performance

Behaviour Good
Training Effectiveness
35%
Player Development
30%
Injury Prevention
40%
Tactical Implementation
45%

Recent Events

Attended a recruitment meeting now
Attended a recruitment meeting now
Recommended a transfer target now
Recommended a transfer target now
Recommended a transfer target now
Assessed a player now
Assessed a player now
Assessed a player now

Currently Monitoring

83
Player Club Status Ability Confidence Watched Last Observed Latest Vote
Daniel Barrea Godoy Cruz Active 133 / 117 40% 5 03.12.2028 -
Tobías Leiva Estudiantes Active 98 / 119 40% 3 03.12.2028 -
Alexander Díaz Deportivo Riestra Active 104 / 111 40% 1 01.12.2028 -
Agustín Colazo Unión de Santa Fe Active 134 / 123 40% 1 01.12.2028 -
Agustín Morales Estudiantes Active 106 / 102 40% 2 30.11.2028 -
Luca Langoni Columbus Crew Active 139 / 146 40% 2 29.11.2028 -
Antonio Napolitano Agropecuario Argentino Active 115 / 99 40% 1 29.11.2028 -
Pablo Cardona Cortulua Active 105 / 122 40% 1 28.11.2028 -
John Córdoba Millonarios Active 141 / 106 40% 1 28.11.2028 -
Matías Bergara Nueva Chicago Active 106 / 104 40% 1 25.11.2028 -
Federico Versaci Talleres Active 137 / 118 40% 2 22.11.2028 -
Juan Sebastián Herrera Deportivo La Guaira Active 98 / 101 40% 1 22.11.2028 -
Tomás Pozzo Godoy Cruz Active 120 / 126 40% 1 21.11.2028 -
Juan Velázquez Belgrano Active 111 / 114 40% 1 19.11.2028 -
Antonio Galeano Remo Stars Active 133 / 128 40% 1 19.11.2028 -
Alex Luna Instituto Active 142 / 135 40% 3 17.11.2028 -
Alcides Benítez Belgrano Active 135 / 114 40% 1 17.11.2028 -
Facundo Lencioni Gimnasia y Esgrima Active 106 / 109 40% 1 15.11.2028 -
Gerónimo Tomasetti Temperley Active 123 / 100 40% 1 15.11.2028 -
Santiago Sala Güemes Active 97 / 125 40% 3 14.11.2028 -
Yackson Rivas Deportivo La Guaira Active 112 / 106 40% 1 13.11.2028 -
Yuber Quiñónes Patriotas Active 117 / 127 40% 1 13.11.2028 -
Gastón Moreyra Almirante Brown Active 129 / 109 40% 2 12.11.2028 -
Yeferson Rodallega Envigado Active 109 / 120 40% 2 12.11.2028 -
Ruben Ramos LA Galaxy Active 107 / 96 40% 1 11.11.2028 -
Joaquín Varela Albion Active 86 / 85 40% 1 11.11.2028 -
Johan Campaña Patriotas Active 115 / 116 40% 3 10.11.2028 -
Augusto Berrondo Tristán Suárez Active 112 / 95 40% 1 10.11.2028 -
Diego Gaitán Maipú Active 92 / 121 40% 2 08.11.2028 -
Camilo Machado Madryn Active 107 / 101 40% 1 07.11.2028 -
Francisco Gerometta Godoy Cruz Active 139 / 114 40% 1 07.11.2028 -
Marcio Gómez Racing Active 113 / 107 40% 1 07.11.2028 -
Fernando Herrera Pafos Negotiating 96 / 96 66% 1 16.07.2028 Approve
Louie Barry Gillingham Active 128 / 129 68% 1 16.07.2028 Approve
Daniel Kyerewaa Reading Active 125 / 135 40% 1 14.07.2028 -
Calvin Ramsay Bristol Rovers Active 114 / 122 40% 1 14.07.2028 -
Malik Mothersille Stockport County Active 120 / 116 40% 1 12.07.2028 -
Ethan Williams Peterborough United Active 127 / 111 40% 1 12.07.2028 -
Johnly Yfeko Exeter City Active 130 / 109 40% 1 11.07.2028 -
Oscar Schwartau Norwich City Active 147 / 144 40% 1 11.07.2028 -
Ar'jany Martha Rotherham United Active 109 / 104 40% 2 09.07.2028 -
Tristan Crama Wycombe Wanderers Active 109 / 137 40% 1 06.07.2028 -
Tim Iroegbunam Peterborough United Active 121 / 153 40% 1 05.07.2028 -
Olaf Kobacki Sheffield Wednesday Active 115 / 117 40% 1 05.07.2028 -
Idris El Mizouni Leyton Orient Active 135 / 121 40% 1 04.07.2028 -
Kyreece Lisbie Colchester United Active 108 / 107 40% 1 03.07.2028 -
Alejandro Rincon Llaneros Active 102 / 102 66% 1 01.02.2028 Approve
Dato Mchedlidze Tskhinvali Negotiating 101 / 104 90% 1 01.02.2028 -
Emanuele Schimmenti Potenza Lost 114 / 115 66% 1 01.02.2028 -
Martti Haukioja VPS Active 94 / 107 41% 1 01.02.2028 -
Joaquín Valiente FC Dallas Active 95 / 104 40% 2 31.01.2028 -
Patricio Moyano Defensores Active 113 / 125 40% 3 04.01.2028 -
Manuel Duarte Barracas Central Active 118 / 106 40% 1 03.01.2028 -
Mario Sanabria Chacarita Juniors Active 99 / 105 40% 1 02.01.2028 -
Santiago Martínez Godoy Cruz Active 122 / 127 40% 1 29.12.2027 -
Pedro Souto Temperley Active 99 / 101 40% 3 28.12.2027 -
Matías Rosales Sarmiento Active 126 / 118 40% 2 27.12.2027 -
Franco Ayunta Temperley Active 94 / 117 40% 1 24.12.2027 -
Manuel Mónaco Sarmiento Active 125 / 117 40% 2 23.12.2027 -
Yegor Kortsov Dinamo Brest Active 89 / 112 40% 1 21.12.2027 -
Ramón González Almirante Brown Active 102 / 128 40% 1 20.12.2027 -
Matías Machado Racing Active 98 / 106 40% 1 20.12.2027 -
Tobías Macies Almagro Active 83 / 106 40% 1 19.12.2027 -
Matías Fernández Independiente Rivadavia Active 101 / 124 40% 1 13.12.2027 -
Gino Olguín Ferro Carril Oeste Active 89 / 119 40% 1 13.12.2027 -
Facundo Taborda Racing Active 117 / 122 40% 2 10.12.2027 -
Franco Vedoya Central Norte Active 107 / 118 40% 1 10.12.2027 -
José Barreto Quilmes Active 133 / 105 40% 1 07.12.2027 -
Matías Arias Vélez Active 124 / 121 40% 1 06.12.2027 -
Juan David Rueda Alianza Petrolera Active 109 / 123 40% 2 04.12.2027 -
Iñaki Larthirigoyen San Telmo Active 124 / 117 40% 3 27.11.2027 -
Nicolás Mosca Atlanta Active 130 / 109 40% 1 24.11.2027 -
Federico Bisanz Atlanta Active 118 / 123 40% 1 17.11.2027 -
Ismael Cortez Gimnasia y Esgrima Active 94 / 101 40% 1 15.11.2027 -
Santiago Kubiszyn Morón Active 133 / 128 40% 1 13.11.2027 -
Enzo González Defensores Active 86 / 118 40% 2 11.11.2027 -
Gustavo Viera Cerro Largo Active 109 / 111 40% 1 11.11.2027 -
Martín Campos Ferro Carril Oeste Active 141 / 113 40% 1 07.11.2027 -
Alejo Dramisino Atlanta Active 140 / 111 40% 1 05.11.2027 -
Jefry Zapata Aldosivi Active 110 / 118 40% 1 04.11.2027 -
Danila Bulgakov SJK Active 100 / 99 41% 1 29.03.2027 -
Seth Saarinen Inter Turku Active 92 / 86 41% 1 15.02.2027 -
Yiandro Raap Ilves Active 82 / 95 41% 1 10.08.2026 Needs More Info